Wolf Point, MT

1:02 PM MST on December 11, 2017 (GMT -0700)
Clayton

Weather History for KOLF - October, 2013

Change the Weather History Date:

Tuesday, October 29, 2013

  Actual Average Record
Temperature  
Mean Temperature 30 °F -  
Max Temperature 35 °F 51 °F 71 °F (2007)
Min Temperature 25 °F 24 °F 12 °F (2002)
Degree Days  
Heating Degree Days 35    
Cooling Degree Days 0    
Moisture  
Dew Point 24 °F    
Average Humidity 80    
Maximum Humidity 88    
Minimum Humidity 72    
Precipitation  
Precipitation T in 0.02 in 0.43 in (2003)
Month to date precipitation 0.25 0.77  
Year to date precipitation 13.04 11.45  
Sea Level Pressure  
Sea Level Pressure 30.21 in    
Wind  
Wind Speed 7 mph (ESE)    
Max Wind Speed 10 mph    
Max Gust Speed -    
Visibility 8 miles    
Events Snow    
T = Trace of Precipitation, MM = Missing Value Source: NWS Daily Summary

Daily Weather History Graph

Daily Weather History Graph

Search for Another Location

Airport or City:

Trip Planner

Search our weather history database for the weather conditions in past years. The results will help you decide how hot, cold, wet, or windy it might be!

Date:

Astronomy

Oct. 29, 2013 Rise Set
Actual Time 7:43 AM MDT 5:47 PM MDT
Civil Twilight 7:10 AM MDT 6:20 PM MDT
Nautical Twilight 6:34 AM MDT 6:56 PM MDT
Astronomical Twilight 5:58 AM MDT 7:32 PM MDT
Moon 2:13 AM MDT (10/29) 3:22 PM MDT (10/29)
Length of Visible Light 11h 09m
Length of Day
10h 04m
Waning Crescent, 24% of the Moon is Illuminated
Oct 29
Waning Crescent
Nov 3
New
Nov 9
First Quarter
Nov 17
Full
Nov 25
Last Quarter

Hourly Weather History & Observations

Time (MDT) Temp. Windchill Dew Point Humidity Pressure Visibility Wind Dir Wind Speed Gust Speed Precip Events Conditions
12:03 AM 26.6 °F 16.8 °F 23.0 °F 86% 30.33 in 2.0 mi East 10.4 mph - 0.00 in Snow Light Snow
12:25 AM 26.6 °F 17.5 °F 23.0 °F 86% 30.33 in 1.8 mi East 9.2 mph - 0.00 in Snow Light Snow
12:46 AM 26.6 °F 18.2 °F 23.0 °F 86% 30.32 in 1.8 mi ENE 8.1 mph - 0.00 in Snow Light Snow
12:53 AM 26.1 °F 17.6 °F 23.0 °F 88% 30.42 in 2.0 mi ENE 8.1 mph - 0.00 in Snow Light Snow
1:00 AM 26.6 °F 19.1 °F 23.0 °F 86% 30.32 in 2.0 mi East 6.9 mph - 0.00 in Snow Light Snow
1:35 AM 26.6 °F 17.5 °F 23.0 °F 86% 30.30 in 5.0 mi East 9.2 mph - 0.00 in   Overcast
1:53 AM 26.1 °F 19.4 °F 23.0 °F 88% 30.38 in 7.0 mi East 5.8 mph - 0.00 in   Overcast
2:53 AM 27.0 °F 19.5 °F 23.0 °F 85% 30.35 in 8.0 mi East 6.9 mph - N/A   Overcast
3:53 AM 27.0 °F 18.7 °F 23.0 °F 85% 30.33 in 8.0 mi NE 8.1 mph - N/A   Overcast
4:02 AM 26.6 °F 17.5 °F 23.0 °F 86% 30.25 in 8.0 mi ENE 9.2 mph - N/A   Overcast
4:40 AM 26.6 °F 17.5 °F 21.2 °F 80% 30.23 in 8.0 mi East 9.2 mph - N/A   Overcast
4:53 AM 26.1 °F 16.8 °F 21.9 °F 84% 30.30 in 8.0 mi East 9.2 mph - N/A   Overcast
5:53 AM 27.0 °F 18.7 °F 23.0 °F 85% 30.29 in 8.0 mi East 8.1 mph - N/A   Overcast
6:53 AM 26.1 °F 16.8 °F 23.0 °F 88% 30.29 in 9.0 mi ENE 9.2 mph - N/A   Overcast
7:53 AM 26.1 °F 19.4 °F 21.9 °F 84% 30.28 in 8.0 mi ENE 5.8 mph - N/A   Overcast
8:22 AM 26.6 °F 20.0 °F 23.0 °F 86% 30.18 in 10.0 mi East 5.8 mph - N/A   Overcast
8:53 AM 28.0 °F 20.8 °F 21.9 °F 78% 30.28 in 10.0 mi East 6.9 mph - N/A   Overcast
9:03 AM 28.4 °F 22.2 °F 21.2 °F 74% 30.18 in 10.0 mi East 5.8 mph - N/A   Overcast
9:53 AM 28.0 °F 19.3 °F 21.9 °F 78% 30.27 in 10.0 mi ENE 9.2 mph - N/A   Overcast
10:53 AM 28.9 °F 21.9 °F 23.0 °F 78% 30.24 in 10.0 mi East 6.9 mph - N/A   Overcast
11:53 AM 30.9 °F 26.2 °F 24.1 °F 76% 30.22 in 10.0 mi SSE 4.6 mph - N/A   Overcast
12:23 PM 30.2 °F 26.7 °F 24.8 °F 80% 30.12 in 10.0 mi SE 3.5 mph - N/A   Overcast
12:53 PM 32.0 °F 27.5 °F 25.0 °F 75% 30.19 in 10.0 mi ESE 4.6 mph - N/A   Overcast
1:53 PM 34.0 °F 28.8 °F 26.1 °F 73% 30.16 in 10.0 mi SSE 5.8 mph - N/A   Overcast
2:53 PM 34.0 °F - 26.1 °F 73% 30.15 in 10.0 mi Calm Calm - N/A   Overcast
3:30 PM 33.8 °F 29.6 °F 26.6 °F 75% 30.05 in 10.0 mi South 4.6 mph - N/A   Overcast
3:48 PM 33.8 °F 29.6 °F 26.6 °F 75% 30.05 in 10.0 mi SSE 4.6 mph - N/A   Overcast
3:53 PM 34.0 °F 31.0 °F 26.1 °F 73% 30.13 in 10.0 mi SSE 3.5 mph - N/A   Overcast
4:53 PM 35.1 °F 31.0 °F 27.0 °F 72% 30.12 in 10.0 mi South 4.6 mph - N/A   Overcast
5:53 PM 34.0 °F 31.0 °F 27.0 °F 75% 30.10 in 10.0 mi South 3.5 mph - N/A   Overcast
6:53 PM 34.0 °F 29.8 °F 27.0 °F 75% 30.09 in 10.0 mi South 4.6 mph - N/A   Overcast
7:53 PM 34.0 °F - 27.0 °F 75% 30.08 in 10.0 mi Calm Calm - N/A   Overcast
8:53 PM 34.0 °F 29.8 °F 27.0 °F 75% 30.06 in 10.0 mi Variable 4.6 mph - N/A   Overcast
9:53 PM 33.1 °F 28.7 °F 27.0 °F 78% 30.05 in 10.0 mi South 4.6 mph - N/A   Overcast
10:53 PM 33.1 °F 30.0 °F 28.0 °F 82% 30.05 in 10.0 mi SSW 3.5 mph - N/A   Overcast
11:53 PM 30.9 °F - 26.1 °F 82% 30.02 in 10.0 mi Calm Calm - N/A   Partly Cloudy